Regional Weather Roundup
Issued by NWS

Home | Current Version | Previous Version | Graphics & Text | Print | Product List | Glossary On
Versions: 1 2 3 4 5 6 7 8 9 10 11 12 13 14 15 16 17 18 19 20 21 22 23 24 25 26 27 28 29 30 31 32 33 34 35 36 37 38 39 40 41 42 43 44 45 46 47 48 49 50
907
ASUS43 KOAX 231403
RWRNE

WEATHER ROUNDUP FOR NEBRASKA
NATIONAL WEATHER SERVICE OMAHA NE
900 AM CDT WED MAY 23 2018

NOTES: SATELLITE DATA IS BEING USED TO AUGMENT CLOUD COVER ABOVE
       12000 FEET.
       "FAIR" INDICATES FEW OR NO CLOUDS BELOW 12,000 FEET WITH NO
       SIGNIFICANT WEATHER AND/OR OBSTRUCTIONS TO VISIBILITY.


NEZ001>004-019>022-054>056-231500-
NEBRASKA PANHANDLE

CITY           SKY/WX    TMP DP  RH WIND       PRES   REMARKS
SCOTTSBLUFF    MOSUNNY   56  56 100 NW10      29.98F
ALLIANCE       CLOUDY    58  56  93 NW8       29.96F
CHADRON        CLOUDY    57  55  93 SW10      29.97R
GORDON         FAIR      59  56  89 W9        29.95R
KIMBALL        PTSUNNY   56  53  91 CALM      30.02F
SIDNEY         PTSUNNY   62  54  74 NW6       30.00R
$$

NEZ057>060-069>072-079>082-231500-
SOUTHWEST NEBRASKA

CITY           SKY/WX    TMP DP  RH WIND       PRES   REMARKS
NORTH PLATTE   PTSUNNY   69  61  75 SE6       29.98S
IMPERIAL       CLOUDY    68  58  70 S9        29.99R
LEXINGTON      PTSUNNY   72  62  72 S13       29.99S
MCCOOK         PTSUNNY   72  59  63 SW9       29.99S
OGALLALA       PTSUNNY   67  57  70 SW5       29.98R
$$

NEZ005>010-023>029-035>040-094-231500-
NORTH CENTRAL NEBRASKA

CITY           SKY/WX    TMP DP  RH WIND       PRES   REMARKS
VALENTINE      MOSUNNY   72  61  68 S17       29.91S
AINSWORTH      MOSUNNY   71  64  78 S13G20    29.94R
BROKEN BOW     MOSUNNY   71  62  73 S13       29.99R
O`NEILL        PTSUNNY   73  65  76 S8        29.98S
ORD            MOSUNNY   74  63  68 S16G24    29.97S
THEDFORD       PTSUNNY   70  60  70 S15       29.96R
$$

NEZ041-046>049-061>064-073>077-083>087-231500-
SOUTH CENTRAL NEBRASKA

CITY           SKY/WX    TMP DP  RH WIND       PRES   REMARKS
GRAND ISLAND   MOSUNNY   73  65  75 S15G24    30.01F
AURORA         MOSUNNY   74  66  75 S13G18    30.02S
HASTINGS       CLOUDY    73  65  75 S14       30.02F
HEBRON         SUNNY     77  66  67 SW12G18   30.05S
HOLDREGE       PTSUNNY   71  63  76 S13       30.00F
KEARNEY          N/A     72  64  76 S14       30.02R
YORK           CLOUDY    75  72  88 S14       30.04S
$$

NEZ011>018-030>034-042>045-231500-
NORTHEAST NEBRASKA

CITY           SKY/WX    TMP DP  RH WIND       PRES   REMARKS
NORFOLK        MOSUNNY   75  66  73 S15G23    30.00R
ALBION         CLOUDY    74  66  76 S12G18    30.01S
BLAIR          SUNNY     75  67  75 S13       30.06S
COLUMBUS       SUNNY     76  66  71 S15       30.03R
FREMONT        SUNNY     77  67  72 S12       30.05S
TEKAMAH        SUNNY     73  68  84 SE13      30.04S
WAYNE          MOSUNNY   73  72  96 S16       30.02S
$$

NEZ050>053-065>068-078-088>093-231500-
SOUTHEAST NEBRASKA

CITY           SKY/WX    TMP DP  RH WIND       PRES   REMARKS
LINCOLN        SUNNY     77  68  73 S10       30.05S
OMAHA EPPLEY   MOSUNNY   76  66  71 S14       30.06R
BEATRICE       MOSUNNY   78  69  74 S9        30.06F
FALLS CITY     SUNNY     76  66  71 S8        30.07S
NEBRASKA CITY  SUNNY     76  70  81 S10       30.08S
PLATTSMOUTH    SUNNY     74  67  79 SE8       30.07S
$$

NEZ044-045-051>053-067-231500-
OMAHA AREA

CITY           SKY/WX    TMP DP  RH WIND       PRES   REMARKS
OMAHA EPPLEY   MOSUNNY   76  66  71 S14       30.06R
BLAIR          SUNNY     75  67  75 S13       30.06S
FREMONT        SUNNY     77  67  72 S12       30.05S
MILLARD        SUNNY     77  69  75 SE12      30.07R
OFFUTT AFB     SUNNY     75  67  77 SE10      30.06R
PLATTSMOUTH    SUNNY     74  67  79 SE8       30.07S
WAHOO          FAIR      75  65  71 S10       30.05S
$$




USA.gov is the U.S. government's official web portal to all federal, state and local government web resources and services.